,

(GMT )
Cul'Man

Weather History for UELL - March, 2013

Change the Weather History Date:

Sunday, March 24, 2013

  Actual Average Record
Temperature  
Mean Temperature 4 °F -  
Max Temperature 12 °F - - ()
Min Temperature -4 °F - - ()
Degree Days  
Heating Degree Days 61    
Moisture  
Dew Point -5 °F    
Average Humidity 66    
Maximum Humidity 92    
Minimum Humidity 35    
Precipitation  
Precipitation 0.00 in - - ()
Sea Level Pressure  
Sea Level Pressure 30.07 in    
Wind  
Wind Speed 7 mph ()    
Max Wind Speed 13 mph    
Max Gust Speed 20 mph    
Visibility 6.2 miles    
Events Snow    
T = Trace of Precipitation, MM = Missing Value Source: Averaged Metar Reports

Daily Weather History Graph

Daily Weather History Graph

Search for Another Location

Airport or City:

Trip Planner

Search our weather history database for the weather conditions in past years. The results will help you decide how hot, cold, wet, or windy it might be!

Date:

Astronomy

Mar. 24, 2013 Rise Set
Actual Time 7:32 AM +10 8:02 PM +10
Civil Twilight 6:54 AM +10 8:40 PM +10
Nautical Twilight 6:08 AM +10 9:26 PM +10
Astronomical Twilight 5:19 AM +10 10:16 PM +10
Moon 4:23 PM +10 (3/24) 5:57 AM +10 (3/24)
Length of Visible Light 13h 46m
Length of Day
12h 29m
Waxing Gibbous, 88% of the Moon is Illuminated
Mar 24
Waxing Gibbous
Mar 27
Full
Apr 3
Last Quarter
Apr 10
New
Apr 18
First Quarter

Hourly Weather History & Observations

Time (+10) Temp. Windchill Dew Point Humidity Pressure Visibility Wind Dir Wind Speed Gust Speed Precip Events Conditions
12:00 AM 5.0 °F -3.9 °F -4.0 °F 66% 30.06 in 6.2 mi NNW 4.5 mph - N/A   Mostly Cloudy
12:30 AM 3.2 °F -11.1 °F -4.0 °F 72% 30.09 in 6.2 mi NW 8.9 mph - N/A   Mostly Cloudy
1:00 AM 5.0 °F -8.9 °F -2.2 °F 72% 30.09 in 6.2 mi NNW 8.9 mph - N/A   Mostly Cloudy
2:00 AM 1.4 °F -11.0 °F -4.0 °F 78% 30.09 in 6.2 mi NNW 6.7 mph - N/A   Mostly Cloudy
3:00 AM 1.4 °F -11.0 °F -5.8 °F 72% 30.09 in 6.2 mi NW 6.7 mph - N/A   Mostly Cloudy
4:00 AM -0 °F - -6 °F 65% 30.43 in 31 mi WNW 6.7 mph - -   Clear
4:00 AM -0.4 °F -13.2 °F -5.8 °F 78% 30.09 in 6.2 mi WNW 6.7 mph - N/A   Mostly Cloudy
5:00 AM -0.4 °F -15.5 °F -5.8 °F 78% 30.09 in 6.2 mi NW 8.9 mph - N/A   Mostly Cloudy
5:30 AM -2.2 °F -12.2 °F -5.8 °F 85% 30.09 in 6.2 mi NW 4.5 mph - N/A   Mostly Cloudy
6:00 AM -2.2 °F -12.2 °F -5.8 °F 85% 30.09 in 6.2 mi NW 4.5 mph - N/A   Mostly Cloudy
6:30 AM -2.2 °F -15.4 °F -7.6 °F 78% 30.09 in 6.2 mi WNW 6.7 mph - N/A   Mostly Cloudy
7:00 AM -2.2 °F -12.2 °F -5.8 °F 85% 30.09 in 6.2 mi NW 4.5 mph - N/A   Partly Cloudy
7:30 AM -4.0 °F -17.5 °F -5.8 °F 92% 30.09 in 6.2 mi NW 6.7 mph - N/A   Partly Cloudy
8:00 AM -4.0 °F -19.9 °F -7.6 °F 85% 30.09 in 6.2 mi NW 8.9 mph - N/A   Partly Cloudy
8:30 AM -4.0 °F -17.5 °F -7.6 °F 85% 30.09 in 6.2 mi NNW 6.7 mph - N/A   Partly Cloudy
9:00 AM -2.2 °F -15.4 °F -5.8 °F 85% 30.09 in 6.2 mi NNW 6.7 mph - N/A   Partly Cloudy
9:30 AM -0.4 °F -15.5 °F -4.0 °F 85% 30.09 in 6.2 mi NNW 8.9 mph - N/A   Partly Cloudy
10:00 AM 0 °F - -6 °F 66% 30.42 in 31 mi North 8.9 mph - -   Clear
10:00 AM 1.4 °F -15.1 °F -5.8 °F 72% 30.09 in 6.2 mi North 11.2 mph - N/A   Partly Cloudy
10:30 AM 3.2 °F -11.1 °F -4.0 °F 72% 30.09 in 6.2 mi North 8.9 mph - N/A   Partly Cloudy
11:00 AM 3.2 °F -12.9 °F -4.0 °F 72% 30.09 in 6.2 mi North 11.2 mph - N/A   Partly Cloudy
11:30 AM 3.2 °F -12.9 °F -5.8 °F 66% 30.09 in 6.2 mi North 11.2 mph - N/A   Partly Cloudy
12:00 PM 5.0 °F -10.6 °F -4.0 °F 66% 30.09 in 6.2 mi North 11.2 mph 17.9 mph N/A Snow Low Drifting Snow
12:30 PM 6.8 °F -8.4 °F -4.0 °F 61% 30.09 in 6.2 mi North 11.2 mph 17.9 mph N/A   Scattered Clouds
1:00 PM 6.8 °F -9.8 °F -4.0 °F 61% 30.09 in 6.2 mi North 13.4 mph 20.1 mph N/A Snow Low Drifting Snow
1:30 PM 6.8 °F -8.4 °F -4.0 °F 61% 30.06 in 6.2 mi North 11.2 mph 20.1 mph N/A   Scattered Clouds
2:00 PM 8.6 °F -6.1 °F -2.2 °F 62% 30.06 in 6.2 mi NNW 11.2 mph 17.9 mph N/A Snow Low Drifting Snow
2:30 PM 8.6 °F -6.1 °F -4.0 °F 57% 30.06 in 6.2 mi NNW 11.2 mph 17.9 mph N/A   Scattered Clouds
3:00 PM 10.4 °F -3.9 °F -2.2 °F 57% 30.01 in 6.2 mi North 11.2 mph 17.9 mph N/A Snow Low Drifting Snow
3:30 PM 10.4 °F -2.2 °F -4.0 °F 52% 30.01 in 6.2 mi NNW 8.9 mph 15.7 mph N/A   Partly Cloudy
4:00 PM 12 °F - -3 °F 35% 30.27 in 31 mi NNW 11.2 mph - - Snow Low Drifting Snow
4:00 PM 12.2 °F -1.6 °F -2.2 °F 53% 30.01 in 6.2 mi NNW 11.2 mph 17.9 mph N/A Snow Low Drifting Snow
4:30 PM 12.2 °F -1.6 °F -4.0 °F 48% 30.01 in 6.2 mi North 11.2 mph 17.9 mph N/A   Scattered Clouds
5:00 PM 12.2 °F -1.6 °F -4.0 °F 48% 30.01 in 6.2 mi North 11.2 mph 17.9 mph N/A Snow Low Drifting Snow
5:30 PM 12.2 °F -1.6 °F -4.0 °F 48% 30.01 in 6.2 mi NNW 11.2 mph 17.9 mph N/A   Scattered Clouds
6:00 PM 10.4 °F -3.9 °F -4.0 °F 52% 30.01 in 6.2 mi North 11.2 mph 17.9 mph N/A Snow Low Drifting Snow
6:30 PM 10.4 °F -3.9 °F -4.0 °F 52% 30.01 in 6.2 mi North 11.2 mph 17.9 mph N/A   Partly Cloudy
7:00 PM 12.2 °F -1.6 °F -4.0 °F 48% 30.01 in 6.2 mi North 11.2 mph 17.9 mph N/A Snow Low Drifting Snow
7:30 PM 10.4 °F -2.2 °F -5.8 °F 48% 29.98 in 6.2 mi North 8.9 mph 15.7 mph N/A Snow Low Drifting Snow
8:00 PM 8.6 °F -2.4 °F -4.0 °F 57% 29.98 in 6.2 mi North 6.7 mph - N/A   Scattered Clouds
8:30 PM 6.8 °F -4.6 °F -5.8 °F 56% 29.98 in 6.2 mi North 6.7 mph - N/A   Scattered Clouds
9:00 PM 5.0 °F -3.9 °F -5.8 °F 61% 29.98 in 6.2 mi North 4.5 mph - N/A   Scattered Clouds
9:30 PM 5.0 °F -3.9 °F -5.8 °F 61% 29.98 in 6.2 mi NNW 4.5 mph - N/A   Scattered Clouds
10:00 PM 5 °F - -5 °F 50% 30.28 in 31 mi NNW 6.7 mph - -   Partly Cloudy
10:00 PM 5.0 °F -6.7 °F -4.0 °F 66% 30.01 in 6.2 mi North 6.7 mph - N/A   Scattered Clouds
10:30 PM 5.0 °F -3.9 °F -4.0 °F 66% 29.98 in 6.2 mi NNW 4.5 mph - N/A   Scattered Clouds
11:00 PM 5.0 °F -3.9 °F -4.0 °F 66% 29.98 in 6.2 mi North 4.5 mph - N/A   Scattered Clouds
11:30 PM 1.4 °F -8.1 °F -5.8 °F 72% 29.98 in 6.2 mi North 4.5 mph - N/A   Scattered Clouds